• In Latvia
  • List of Countries
  • For 7 days
  • Water Temperature
  • Satellite Maps
  • Weather Map
  • Weather Widgets
  • user-avatar
    Login

    Hourly Weather Klagenfurt

    Today, 20 January, Friday

    Time Temperature Precipitation Wind Pressure Humidity
    00:00 -11°C° 0 mm 1 mps 697 mmHg 94%
    01:00 -11°C° 0 mm 1 mps 697 mmHg 92%
    02:00 -11°C° 0 mm 1 mps 697 mmHg 92%
    03:00 -11°C° 0 mm 1 mps 697 mmHg 92%
    04:00 -12°C° 0 mm 1 mps 697 mmHg 92%
    05:00 -12°C° 0 mm 1 mps 697 mmHg 91%
    06:00 -12°C° 0 mm 1 mps 697 mmHg 91%
    07:00 -11°C° 0 mm 1 mps 697 mmHg 90%
    08:00 -9°C° 0 mm 1 mps 698 mmHg 86%
    09:00 -7°C° 0 mm 1 mps 698 mmHg 82%
    10:00 -4°C° 0 mm 1 mps 699 mmHg 79%
    11:00 -3°C° 0 mm 1 mps 699 mmHg 78%
    12:00 -2°C° 0 mm 1 mps 699 mmHg 78%
    13:00 -1°C° 0 mm 1 mps 699 mmHg 77%
    14:00 -2°C° 0 mm 1 mps 698 mmHg 82%
    15:00 -3°C° 0 mm 1 mps 698 mmHg 86%
    16:00 -4°C° 0 mm 1 mps 697 mmHg 91%
    17:00 -7°C° 0 mm 1 mps 697 mmHg 92%
    18:00 -8°C° 0 mm 1 mps 697 mmHg 94%
    19:00 -10°C° 0 mm 1 mps 696 mmHg 95%
    20:00 -10°C° 0 mm 1 mps 696 mmHg 95%
    21:00 -10°C° 0 mm 1 mps 696 mmHg 94%
    22:00 -10°C° 0 mm 1 mps 697 mmHg 94%
    23:00 -11°C° 0 mm 1 mps 696 mmHg 93%

    Tomorrow, 21 January, Saturday

    Time Temperature Precipitation Wind Pressure Humidity
    00:00 -11°C° 0 mm 1 mps 696 mmHg 92%
    01:00 -11°C° 0 mm 1 mps 696 mmHg 92%
    02:00 -11°C° 0 mm 1 mps 696 mmHg 91%
    03:00 -11°C° 0 mm 1 mps 696 mmHg 90%
    04:00 -11°C° 0 mm 1 mps 695 mmHg 90%
    05:00 -11°C° 0 mm 1 mps 695 mmHg 89%
    06:00 -11°C° 0 mm 1 mps 695 mmHg 89%
    07:00 -11°C° 0 mm 1 mps 695 mmHg 89%
    08:00 -8°C° 0 mm 1 mps 696 mmHg 83%
    09:00 -6°C° 0 mm 1 mps 697 mmHg 78%
    10:00 -2°C° 0 mm 1 mps 697 mmHg 73%
    11:00 -1°C° 0 mm 1 mps 697 mmHg 73%
    12:00 0°C° 0 mm 1 mps 697 mmHg 74%
    13:00 +1°C° 0 mm 1 mps 697 mmHg 74%
    14:00 0°C° 0 mm 1 mps 697 mmHg 79%
    15:00 -2°C° 0 mm 1 mps 696 mmHg 85%
    16:00 -3°C° 0 mm 1 mps 696 mmHg 90%
    17:00 -6°C° 0 mm 1 mps 696 mmHg 92%
    18:00 -7°C° 0 mm 1 mps 695 mmHg 93%
    19:00 -9°C° 0 mm 1 mps 695 mmHg 94%
    20:00 -9°C° 0 mm 1 mps 695 mmHg 93%
    21:00 -9°C° 0 mm 1 mps 695 mmHg 93%
    22:00 -9°C° 0 mm 1 mps 696 mmHg 92%
    23:00 -9°C° 0 mm 1 mps 696 mmHg 92%

    Day after tomorrow, 22 January, Sunday

    Time Temperature Precipitation Wind Pressure Humidity
    00:00 -9°C° 0 mm 1 mps 696 mmHg 91%
    01:00 -10°C° 0 mm 1 mps 696 mmHg 91%
    02:00 -10°C° 0 mm 1 mps 695 mmHg 91%
    03:00 -10°C° 0 mm 1 mps 695 mmHg 91%
    04:00 -10°C° 0 mm 1 mps 695 mmHg 91%
    05:00 -10°C° 0 mm 1 mps 695 mmHg 91%
    06:00 -11°C° 0 mm 1 mps 694 mmHg 90%
    07:00 -11°C° 0 mm 1 mps 694 mmHg 89%
    08:00 -8°C° 0 mm 1 mps 695 mmHg 85%
    09:00 -6°C° 0 mm 1 mps 696 mmHg 80%
    10:00 -3°C° 0 mm 1 mps 696 mmHg 75%
    11:00 -2°C° 0 mm 1 mps 696 mmHg 74%
    12:00 -1°C° 0 mm 1 mps 696 mmHg 73%
    13:00 0°C° 0 mm 1 mps 695 mmHg 72%
    14:00 -1°C° 0 mm 1 mps 695 mmHg 77%
    15:00 -2°C° 0 mm 1 mps 695 mmHg 82%
    16:00 -3°C° 0 mm 1 mps 694 mmHg 87%
    17:00 -4°C° 0 mm 1 mps 694 mmHg 88%
    18:00 -7°C° 0 mm 1 mps 694 mmHg 89%
    19:00 -8°C° 0 mm 1 mps 693 mmHg 90%
    20:00 -8°C° 0 mm 1 mps 693 mmHg 89%
    21:00 -8°C° 0 mm 1 mps 693 mmHg 87%
    22:00 -9°C° 0 mm 1 mps 693 mmHg 86%
    23:00 -8°C° 0 mm 1 mps 693 mmHg 86%

    23 January, Monday

    Time Temperature Precipitation Wind Pressure Humidity
    00:00 -8°C° 0 mm 1 mps 693 mmHg 85%
    01:00 -8°C° 0 mm 1 mps 692 mmHg 84%
    02:00 -8°C° 0 mm 1 mps 692 mmHg 85%
    03:00 -8°C° 0 mm 1 mps 692 mmHg 85%
    04:00 -8°C° 0 mm 1 mps 691 mmHg 85%
    05:00 -8°C° 0 mm 1 mps 691 mmHg 85%
    06:00 -8°C° 0 mm 1 mps 691 mmHg 86%
    07:00 -8°C° 0 mm 1 mps 691 mmHg 86%
    08:00 -6°C° 0 mm 1 mps 691 mmHg 82%
    09:00 -2°C° 0 mm 1 mps 692 mmHg 78%
    10:00 0°C° 0 mm 1 mps 692 mmHg 74%
    11:00 +1°C° 0 mm 1 mps 692 mmHg 75%
    12:00 +2°C° 0 mm 1 mps 692 mmHg 76%
    13:00 +2°C° 0 mm 0 mps 692 mmHg 77%
    14:00 +2°C° 0 mm 1 mps 691 mmHg 81%
    15:00 +1°C° 0 mm 1 mps 691 mmHg 86%
    16:00 0°C° 0 mm 1 mps 690 mmHg 91%
    17:00 -2°C° 0 mm 1 mps 690 mmHg 92%
    18:00 -3°C° 0 mm 1 mps 689 mmHg 94%
    19:00 -6°C° 0 mm 1 mps 689 mmHg 95%
    20:00 -6°C° 0 mm 1 mps 689 mmHg 95%
    21:00 -6°C° 0 mm 1 mps 689 mmHg 95%
    22:00 -6°C° 0 mm 1 mps 689 mmHg 94%
    23:00 -6°C° 0 mm 1 mps 689 mmHg 94%

    24 January, Tuesday

    Time Temperature Precipitation Wind Pressure Humidity
    00:00 -6°C° 0 mm 1 mps 689 mmHg 94%
    01:00 -6°C° 0 mm 1 mps 689 mmHg 93%
    02:00 -6°C° 0 mm 1 mps 689 mmHg 93%
    03:00 -6°C° 0 mm 1 mps 689 mmHg 93%
    04:00 -7°C° 0 mm 1 mps 688 mmHg 93%
    05:00 -7°C° 0 mm 1 mps 689 mmHg 93%
    06:00 -7°C° 0 mm 1 mps 689 mmHg 93%
    07:00 -7°C° 0 mm 1 mps 689 mmHg 92%
    08:00 -4°C° 0 mm 1 mps 690 mmHg 89%
    09:00 -3°C° 0 mm 1 mps 690 mmHg 85%
    10:00 -1°C° 0 mm 1 mps 691 mmHg 81%
    11:00 0°C° 0 mm 1 mps 691 mmHg 80%
    12:00 +1°C° 0 mm 1 mps 691 mmHg 78%
    13:00 +2°C° 0 mm 1 mps 691 mmHg 76%
    14:00 +1°C° 0 mm 1 mps 691 mmHg 80%
    15:00 0°C° 0 mm 1 mps 691 mmHg 84%
    16:00 -1°C° 0 mm 1 mps 691 mmHg 88%
    17:00 -2°C° 0 mm 1 mps 691 mmHg 90%
    18:00 -4°C° 0 mm 1 mps 691 mmHg 91%
    19:00 -6°C° 0 mm 1 mps 691 mmHg 93%
    20:00 -6°C° 0 mm 1 mps 692 mmHg 92%
    21:00 -6°C° 0 mm 1 mps 692 mmHg 92%
    22:00 -7°C° 0 mm 1 mps 692 mmHg 91%
    23:00 -7°C° 0 mm 1 mps 692 mmHg 91%

    25 January, Wednesday

    Time Temperature Precipitation Wind Pressure Humidity
    00:00 -7°C° 0 mm 1 mps 692 mmHg 90%
    01:00 -8°C° 0 mm 1 mps 692 mmHg 90%
    02:00 -8°C° 0 mm 1 mps 692 mmHg 90%
    03:00 -8°C° 0 mm 1 mps 692 mmHg 89%
    04:00 -8°C° 0 mm 1 mps 692 mmHg 89%
    05:00 -8°C° 0 mm 1 mps 692 mmHg 89%
    06:00 -8°C° 0 mm 1 mps 693 mmHg 89%
    07:00 -8°C° 0 mm 1 mps 693 mmHg 89%
    08:00 -7°C° 0 mm 1 mps 693 mmHg 85%
    09:00 -4°C° 0 mm 1 mps 694 mmHg 82%
    10:00 -3°C° 0 mm 1 mps 695 mmHg 79%
    11:00 -2°C° 0 mm 1 mps 695 mmHg 77%
    12:00 -1°C° 0 mm 1 mps 695 mmHg 76%
    13:00 -2°C° 0 mm 2 mps 694 mmHg 74%
    14:00 -1°C° 0 mm 1 mps 694 mmHg 79%
    15:00 -1°C° 0 mm 1 mps 694 mmHg 83%
    16:00 -2°C° 0 mm 1 mps 694 mmHg 87%
    17:00 -3°C° 0 mm 1 mps 694 mmHg 89%
    18:00 -4°C° 0 mm 1 mps 694 mmHg 92%
    19:00 -6°C° 0 mm 1 mps 694 mmHg 95%
    20:00 -7°C° 0 mm 1 mps 694 mmHg 95%
    21:00 -7°C° 0 mm 1 mps 694 mmHg 95%
    22:00 -7°C° 0 mm 1 mps 694 mmHg 95%
    23:00 -7°C° 0 mm 1 mps 694 mmHg 95%
    Show more